Key statistics
Satellite COSMOS 2251 DEB at a glance.
Uptime
11461
Days in orbit
Revolutions
≈ 14.6
Per day
Orbit
LEO
Low Earth Orbit
Inclination
74.2
Latest
Satellite identification and parameters
Extended collection of information and parameters for COSMOS 2251 DEB.
Object identification
Identified? True
Debris? True
Object name: COSMOS 2251 DEB
International designator: 1993-036BSB
Object number (NORAD): 38069
Object ID (CCSDS): 38069
Country: COMMONWEALTH OF INDEPENDENT STATES (CIS)
Current information (Y/N): Y
RCS size: SMALL
Orbital parameters
Decay date: Nov. 1, 2024
Period: 98.552 minutes
Inclination: 74.1806 deg
SMA: 7067.578 km
Apoapsis: 735.566 km
Periapsis: 643.319 km
RAAN: 299.065 deg
Eccentricy: 0.0065261
Argument of periapsis: 278.1889 deg
Mean anomaly: 109.975 deg
Mean motion: 14.61156971 rev/day
Mean motion (dot): 0.0005619 rev/day2
B* drag term: 0.010993 1/REarth
Two-line elements (TLE)
Creation date: Feb. 12, 2024, 3:07 a.m.
Reference frame: TEME
Reference center: EARTH
Epoch: Feb. 11, 2024, 4:12 p.m. UTC
TLE line 0: 0 COSMOS 2251 DEB
TLE line 1: 1 38069U 93036BSB 24042.67515453 .00056190 00000-0 10993-1 0 9999
TLE line 2: 2 38069 74.1806 299.0650 0065261 278.1889 109.9750 14.61156971514202
Live tracking on map
Satellite COSMOS 2251 DEB has decayed and is no longer in orbit. No tracking available.
In-orbit conjunctions
Satellite COSMOS 2251 DEB has decayed and is no longer in orbit. No conjunctions available.
Associated space launch
Military communications satellite. Destroyed in a collision with Iridium 33.
COSMOS 2251 DEB was lifted into orbit during the mission ‘Kosmos-3M | Strela-2M 51’, on board a Kosmos-3M space rocket.
The launch took place on June 16, 1993, 4:17 a.m. from 132/1 (132L).
For more information about the launch, click the button.
Kosmos-3M | Strela-2M 51
Agency: N/A
Status: Launch Successful
Launch date: June 16, 1993, 4:17 a.m. UTC
Rocket: Kosmos-3M
Launch pad: 132/1 (132L)
Location: Plesetsk Cosmodrome, Russian Federation
...
Latest news about this satellite
There are no fresh news available about this satellite. Check back as we update our databases every day.
Newsletter sign-up
Weekly statistics, charts and insights to help you stay on top of the space industry.

 
                               
                               
                              